Location: Gälforsberget
(66.6500°N, 22.4167°E)
Time: 06:11:42
(UTC+00:00)

CZ-2C R/B - Pass Details

Date: 11 April 2026
Orbit: 344 x 359 km, 97.7° (Epoch: 10 May)

Event Time Altitude Azimuth Distance (km) Brightness Sun altitude
Exits shadow 18:40:15 - 139° (SE) 1,799 4.8 -4.2°
Reaches altitude 10° 18:41:13 10° 135° (SE) 1,391 4.2 -4.3°
Maximum altitude 18:44:03 45° 61° (ENE) 527 2.6 -4.5°
Drops below altitude 10° 18:46:54 10° 347° (NNW) 1,386 5.7 -4.7°
Enters shadow 19:37:04 -74° 161° (SSE) 12,645 9.6 -8.5°
